Location: Dominguez Junction
(33.8634°N, 118.2179°W)
Time: 08:44:29
(UTC+00:00)

COSMO-SKYMED 1 - Pass Details

Date: 29 October 2020
Orbit: 621 x 623 km, 97.9° (Epoch: 26 November)

Event Time Altitude Azimuth Distance (km) Brightness Sun altitude
Rises 13:20:37 0° 172° (S) 2,887 6.2 -10.9°
Reaches altitude 10° 13:22:48 10° 175° (S) 1,984 5.3 -10.4°
Maximum altitude 13:27:06 69° 259° (W) 669 2.5 -9.5°
Drops below altitude 10° 13:31:26 10° 343° (NNW) 1,997 4.9 -8.6°
Sets 13:33:38 0° 345° (NNW) 2,907 5.7 -8.2°
